DW9004 Weather Reports


Display with metric or nautical units.
time (UTC)temp
F
wind
direction
speed
MPH
gust
MPH
rain 1hr
in
rain 24hr
in
rain mn
in
humidity
%
barometer
mb
20260902171506 69 248 6.0 19.0 0.00 0.00 0.00 50 1003.2
20260902170001 67 230 11.0 16.0 0.00 0.00 0.00 51 1003.3
20260902164558 67 210 7.0 15.0 0.00 0.00 0.00 52 1003.2
20260902163109 67 255 5.0 14.0 0.00 0.00 0.00 57 1003.4
20260902161549 66 224 4.0 12.0 0.00 0.00 0.00 58 1003.5
20260902160032 64 225 5.0 9.0 0.00 0.00 0.00 62 1003.4
20260902154533 63 241 3.0 16.0 0.00 0.00 0.00 63 1003.7
20260902153025 61 137 7.0 16.0 0.00 0.00 0.00 68 1003.5
20260902151520 58 199 3.0 13.0 0.00 0.00 0.00 71 1003.9
20260902150015 59 251 4.0 12.0 0.00 0.00 0.00 68 1003.7
20260902144518 57 244 7.0 14.0 0.00 0.00 0.00 70 1003.7
20260902143012 -90 230 0.0 0.0 0.00 0.00 0.00 79 1003.6
20260902141505 0 0.0 0.0 0.00 0.00 0.00 1003.6
20260902140047 0 0.0 0.0 0.00 0.00 0.00 1003.6
20260902134547 0 0.0 0.0 0.00 0.00 0.00 1003.3
20260902133039 0 0.0 0.0 0.00 0.00 0.00 1003.0
20260902131534 0 0.0 0.0 0.00 0.00 0.00 1003.0
20260902130032 0 0.0 0.0 0.00 0.00 0.00 1003.2
20260902124526 0 0.0 0.0 0.00 0.00 0.00 1003.4
20260902123023 0 0.0 0.0 0.00 0.00 0.00 1003.4
20260902121517 0 0.0 0.0 0.00 0.00 0.00 1003.2
20260902120107 0 0.0 0.0 0.00 0.00 0.00 1003.2
20260902113041 59 237 9.0 20.0 0.00 0.00 0.00 68 1003.2
20260902111549 59 222 10.0 19.0 0.00 0.00 0.00 68 1003.0
20260902110036 59 219 7.0 13.0 0.00 0.00 0.00 68 1002.8
20260902104535 59 261 4.0 13.0 0.00 0.00 0.00 67 1002.7
20260902103034 58 197 2.0 8.0 0.00 0.00 0.00 68 1002.5
20260902101532 57 289 1.0 3.0 0.00 0.00 0.00 71 1002.5
20260902100028 58 289 1.0 0.0 0.00 0.00 0.00 68 1002.7
20260902094528 59 287 1.0 4.0 0.00 0.00 0.00 68 1002.6
20260902093011 59 292 1.0 2.0 0.00 0.00 0.00 67 1002.6
20260902091504 60 327 1.0 4.0 0.00 0.00 0.00 65 1002.6
20260902090049 60 225 0.0 8.0 0.00 0.00 0.00 64 1002.5
20260902084545 61 346 2.0 5.0 0.00 0.00 0.00 60 1002.6
20260902083042 65 258 4.0 11.0 0.00 0.00 0.00 56 1002.5
20260902081539 65 282 7.0 20.0 0.00 0.00 0.00 57 1001.8
20260902080036 66 247 12.0 21.0 0.00 0.00 0.00 55 1001.6
20260902074538 66 241 12.0 21.0 0.00 0.00 0.00 54 1001.7
20260902073029 67 256 11.0 23.0 0.00 0.00 0.00 50 1001.6
20260902071526 67 277 9.0 23.0 0.00 0.00 0.00 51 1001.7
20260902070022 68 261 13.0 20.0 0.00 0.00 0.00 51 1001.6
20260902064520 69 234 12.0 22.0 0.00 0.00 0.00 49 1001.6
20260902063032 69 249 17.0 25.0 0.00 0.00 0.00 50 1001.5
20260902061522 69 260 10.0 22.0 0.00 0.00 0.00 48 1001.1
20260902060000 70 249 14.0 23.0 0.00 0.00 0.00 50 1000.9
20260902054559 70 256 16.0 23.0 0.00 0.00 0.00 47 1000.8
20260902051559 71 269 11.0 19.0 0.00 0.00 0.00 44 1000.8
20260902044554 73 251 5.0 13.0 0.00 0.00 0.00 42 1000.4
20260902043051 74 297 5.0 17.0 0.00 0.00 0.00 41 1000.2
20260902041548 74 262 7.0 16.0 0.00 0.00 0.00 41 1000.1
20260902040037 70 263 3.0 6.0 0.00 0.00 0.00 46 1000.0
20260902034532 74 284 3.0 8.0 0.00 0.00 0.00 45 999.7
20260902033030 73 262 4.0 7.0 0.00 0.00 0.00 48 999.3
20260902031529 72 284 3.0 7.0 0.00 0.00 0.00 49 999.2
20260902030025 74 287 2.0 11.0 0.00 0.00 0.00 49 998.9
20260902024521 77 254 2.0 6.0 0.00 0.00 0.00 40 998.8
20260902023020 77 146 4.0 9.0 0.00 0.00 0.00 36 998.9
20260902021518 77 92 4.0 6.0 0.00 0.00 0.00 43 998.8
20260902020006 78 347 1.0 4.0 0.00 0.00 0.00 41 998.6
20260902014600 80 110 4.0 7.0 0.00 0.00 0.00 36 998.7
20260902013057 81 88 5.0 6.0 0.00 0.00 0.00 33 998.6
20260902011553 82 69 4.0 7.0 0.00 0.00 0.00 31 998.5
20260902010049 83 107 6.0 10.0 0.00 0.00 0.00 29 998.5
20260902004548 84 145 4.0 11.0 0.00 0.00 0.00 28 998.6
20260902003045 84 158 5.0 9.0 0.00 0.00 0.00 29 998.7
20260902001545 84 182 6.0 14.0 0.00 0.00 0.00 29 998.8
20260902000042 85 232 4.0 14.0 0.00 0.00 0.00 30 999.0
20260901234528 85 169 4.0 13.0 0.00 0.00 0.00 30 999.0
20260901233026 85 168 7.0 14.0 0.00 0.00 0.00 29 999.1
20260901231528 84 157 9.0 13.0 0.00 0.00 0.00 31 999.1
20260901230021 85 135 4.0 8.0 0.00 0.00 0.00 30 999.3
20260901224525 84 156 3.0 8.0 0.00 0.00 0.00 31 999.4
20260901223015 83 173 6.0 13.0 0.00 0.00 0.00 34 999.6
20260901220011 80 179 7.0 13.0 0.00 0.00 0.00 35 1000.1
20260901214552 80 139 4.0 7.0 0.00 0.00 0.00 37 1000.3
20260901213052 80 239 3.0 8.0 0.00 0.00 0.00 39 1000.4
20260901211537 80 245 3.0 11.0 0.00 0.00 0.00 36 1000.6
20260901210035 80 224 4.0 12.0 0.00 0.00 0.00 39 1000.8
20260901204539 79 199 4.0 8.0 0.00 0.00 0.00 39 1001.0
20260901203036 79 197 6.0 11.0 0.00 0.00 0.00 39 1001.3
20260901201529 78 228 4.0 14.0 0.00 0.00 0.00 40 1001.4
20260901200029 78 169 8.0 16.0 0.00 0.00 0.00 40 1001.6
20260901194529 76 197 6.0 12.0 0.00 0.00 0.00 42 1001.8
20260901193032 75 211 5.0 10.0 0.00 0.00 0.00 42 1001.9
20260901191509 74 165 3.0 5.0 0.00 0.00 0.00 43 1001.9
20260901190008 73 213 4.0 11.0 0.00 0.00 0.00 46 1001.9
20260901184612 74 187 4.0 11.0 0.00 0.00 0.00 45 1002.2
20260901183058 73 166 6.0 12.0 0.00 0.00 0.00 45 1002.3
20260901181600 72 180 5.0 11.0 0.00 0.00 0.00 47 1002.3
20260901180055 72 175 7.0 14.0 0.00 0.00 0.00 46 1002.2
20260901174558 73 166 5.0 10.0 0.00 0.00 0.00 45 1002.4
20260901173053 72 248 4.0 9.0 0.00 0.00 0.00 45 1002.7